Location: downtown San Diego
(32.7310°N, 117.1990°W)
Time: 06:19:35
(UTC-07:00)

Meteor 1-15 Rocket - Pass Details

Date: 19 May 2017
Orbit: 839 x 908 km, 81.2° (Epoch: 28 May)

Event Time Altitude Azimuth Distance (km) Brightness Sun altitude
Rises 22:38:13 0° 351° (N) 3,421 8.3 -29.1°
Reaches altitude 10° 22:40:39 10° 351° (N) 2,475 7.4 -29.4°
Enters shadow 22:45:37 71° 342° (NNW) 888 4.3 -30.0°
